Tracking 30402 objects as of 12-May-2025
HD Live streaming from Space Station
objects crossing your sky now

THOR ABLESTAR DEB

Track THOR ABLESTAR DEB now!
10-day predictions


NORAD ID: 548
Int'l Code: 1961-015GH
Perigee: 590.6 km
Apogee: 723.0 km
Inclination: 66.7 °
Period: 97.7 minutes
Semi major axis: 7027 km
RCS: 0.028 m2 (small)
Launch date: June 29, 1961
Source: United States (US)
Launch site: AIR FORCE EASTERN TEST RANGE (AFETR)

Note: This is SATELLITE DEBRIS
Your satellite tracking list
Your tracking list is empty




NASA's NSSDC Master Catalog

Two Line Element Set (TLE):
1 00548U 61015GH  25131.80578237  .00002838  00000-0  42244-3 0  9992
2 00548  66.6718 356.3252 0094181  62.8076 298.2604 14.73588682344634
Source of the keplerian elements: AFSPC